TimeMDT,TemperatureF,Dew PointF,Humidity,Sea Level PressureIn,VisibilityMPH,Wind Direction,Wind SpeedMPH,Gust SpeedMPH,PrecipitationIn,Events,Conditions,WindDirDegrees,DateUTC
12:53 AM,32.0,21.0,64,30.10,10.0,NE,16.1,25.3,N/A,,Partly Cloudy,50,2012-10-05 06:53:00
1:53 AM,32.0,21.9,66,30.08,10.0,NE,12.7,-,N/A,,Partly Cloudy,40,2012-10-05 07:53:00
2:53 AM,28.9,21.0,72,30.10,10.0,NE,6.9,-,N/A,,Clear,50,2012-10-05 08:53:00
3:53 AM,27.0,19.0,72,30.10,10.0,NE,4.6,-,N/A,,Partly Cloudy,50,2012-10-05 09:53:00
4:53 AM,28.0,18.0,66,30.10,10.0,North,6.9,-,N/A,,Clear,350,2012-10-05 10:53:00
5:53 AM,25.0,19.0,78,30.13,10.0,NNW,5.8,-,N/A,,Clear,340,2012-10-05 11:53:00
6:53 AM,23.0,18.0,81,30.21,10.0,NNW,6.9,-,N/A,,Clear,340,2012-10-05 12:53:00
7:53 AM,26.1,19.9,78,30.23,10.0,NNW,6.9,-,N/A,,Clear,340,2012-10-05 13:53:00
8:53 AM,30.9,21.9,69,30.24,10.0,North,9.2,-,N/A,,Clear,10,2012-10-05 14:53:00
9:53 AM,35.1,21.9,59,30.23,10.0,NE,9.2,-,N/A,,Scattered Clouds,40,2012-10-05 15:53:00
10:30 AM,37.4,23.0,56,30.24,10.0,East,10.4,-,N/A,,Mostly Cloudy,90,2012-10-05 16:30:00
10:53 AM,36.0,23.0,59,30.24,10.0,ENE,8.1,-,N/A,,Mostly Cloudy,60,2012-10-05 16:53:00
11:05 AM,37.4,23.0,56,30.24,10.0,East,6.9,-,N/A,,Scattered Clouds,80,2012-10-05 17:05:00
11:53 AM,37.9,23.0,55,30.23,10.0,NE,4.6,-,N/A,,Partly Cloudy,50,2012-10-05 17:53:00
12:53 PM,37.9,21.9,53,30.22,10.0,NNE,6.9,-,N/A,,Scattered Clouds,30,2012-10-05 18:53:00
1:53 PM,43.0,21.9,43,30.17,10.0,NE,5.8,-,N/A,,Clear,40,2012-10-05 19:53:00
2:53 PM,45.0,21.0,39,30.16,10.0,NNW,8.1,-,N/A,,Partly Cloudy,340,2012-10-05 20:53:00
3:53 PM,44.1,19.9,38,30.16,10.0,Calm,Calm,-,N/A,,Partly Cloudy,0,2012-10-05 21:53:00
4:53 PM,45.0,19.0,36,30.13,10.0,North,9.2,-,N/A,,Partly Cloudy,10,2012-10-05 22:53:00
5:53 PM,42.1,18.0,38,30.16,10.0,East,11.5,-,N/A,,Clear,80,2012-10-05 23:53:00
6:53 PM,37.0,18.0,46,30.20,10.0,NE,12.7,-,N/A,,Clear,50,2012-10-06 00:53:00
7:53 PM,34.0,17.1,50,30.20,10.0,NE,10.4,-,N/A,,Clear,50,2012-10-06 01:53:00
8:53 PM,33.1,17.1,52,30.20,10.0,NE,12.7,-,N/A,,Clear,50,2012-10-06 02:53:00
9:53 PM,30.0,21.0,69,30.20,10.0,NE,17.3,24.2,N/A,,Clear,40,2012-10-06 03:53:00
10:53 PM,28.9,21.9,75,30.22,10.0,ENE,15.0,19.6,N/A,,Clear,60,2012-10-06 04:53:00
11:53 PM,30.0,24.1,79,30.21,10.0,ENE,10.4,-,N/A,,Overcast,60,2012-10-06 05:53:00